[[{"header":{"parameterUnit":"m.s-1","parameterCategory":1,"la1":30.2991,"la2":30.254,"lo1":-89.0895,"lo2":-89.0444,"dy":0.0017,"dx":0.0017,"nx":28,"ny":28,"refTime":"2023-09-28T21:00:00:Z","depth":0,"parameterNumber":2,"parameterNumberName":"U-component_of_WINDS"},"data":[0,0,0,0,0,0,0,0,0,0,0,0,0,0,0,0,0,0,0,0,0,0,0,0,0,0,0,0,0,0,0,0,0,0,0,0,0,0,0,0,0,0,0,0,0,0,0,0,0,0,0,0,0,0,0,0,0,0,-5.0854,-5.0854,0,-5.0895,-5.0895,-5.0896,-5.0795,-5.0792,-5.0789,-5.0786,-5.0829,-5.0833,-5.0837,0,0,0,0,0,0,0,0,0,0,0,0,0,-5.0689,-5.0693,-5.0854,-5.0854,-5.0855,-5.0895,-5.0895,-5.0896,-5.0796,-5.0792,-5.0788,-5.0784,-5.0828,-5.0833,-5.0838,0,0,0,0,0,0,0,0,0,0,0,0,0,-5.0749,-5.0694,-5.0854,-5.0809,-5.0806,-5.0895,-5.0895,-5.0896,-5.0796,-5.0792,-5.0787,-5.0782,-5.0826,-5.0832,-5.0838,-5.0972,0,0,-5.0857,-5.086,0,0,0,0,0,0,0,0,-5.0745,-5.0755,-5.0815,-5.0813,-5.0809,-5.0835,-5.0853,-5.0922,-5.0798,-5.08,-5.0786,-5.078,-5.0835,-5.084,-5.0858,-5.0974,-5.0976,-5.0858,-5.0861,-5.0864,-5.0866,0,0,0,0,0,0,0,-5.0741,-5.0752,-5.087,-5.0816,-5.0812,-5.0788,-5.0791,-5.0866,-5.0844,-5.08,-5.0792,-5.0799,-5.0832,-5.0853,-5.0859,-5.0976,-5.0857,-5.0863,-5.0867,-5.0869,-5.1205,-5.121,0,0,0,0,0,0,-5.0743,-5.075,-5.0869,-5.0871,-5.0765,-5.0795,-5.0798,-5.0831,-5.0843,-5.084,-5.0803,-5.0794,-5.0844,-5.0852,-5.086,-5.1018,-5.0864,-5.087,-5.0873,-5.12,-5.1206,-5.1212,0,0,0,0,0,0,-5.074,-5.0754,-5.0867,-5.0808,-5.0821,-5.0803,-5.0841,-5.0835,-5.0855,-5.0845,-5.0841,-5.0827,-5.0841,-5.0851,-5.0945,-5.1018,-5.0873,-5.0878,-5.1194,-5.1202,-5.1209,-5.1335,0,0,0,0,0,0,-5.0735,-5.0754,-5.0804,-5.081,-5.0824,-5.0952,-5.0845,-5.0839,-5.0866,-5.0855,-5.0867,-5.0865,-5.0838,-5.0936,-5.0951,-5.1024,-5.0883,-5.1187,-5.1197,-5.1206,-5.1325,-5.1347,-5.1365,0,0,0,0,0,-5.073,-5.0838,-5.0807,-5.0822,-5.0887,-5.0956,-5.0964,-5.0931,-5.0872,-5.0923,-5.0917,-5.0864,-5.1008,-5.0947,-5.0963,-5.1039,-5.1182,-5.1194,-5.1206,-5.1316,-5.1342,-5.1365,0,0,0,0,0,0,-5.0841,-5.0838,-5.0804,-5.0917,-5.0938,-5.0939,-5.1002,-5.096,-5.0998,-5.0986,-5.0943,-5.0947,-5.1049,-5.1053,-5.0985,-5.1169,-5.1085,-5.1101,-5.1163,-5.1188,-5.1208,-5.1206,-5.0888,0,0,0,0,0,-5.0879,-5.0935,-5.0929,-5.103,-5.1042,-5.102,-5.1049,-5.1022,-5.1041,-5.1049,-5.105,-5.1071,-5.1121,-5.1154,-5.12,-5.1324,-5.1326,-5.1384,-5.1405,-5.1421,-5.1436,-5.1503,-5.1529,-5.125,-5.125,-5.125,0,0,-5.0957,-5.0963,-5.1,-5.1052,-5.1065,-5.1124,-5.1028,-5.1095,-5.1139,-5.1059,-5.1148,-5.115,-5.1171,-5.1281,-5.1329,-5.1287,-5.1513,-5.1436,-5.145,-5.1455,-5.1518,-5.1545,-5.1568,-5.1258,-5.1257,-5.1256,0,0,-5.1131,-5.114,-5.1226,-5.124,-5.126,-5.1246,-5.1266,-5.1274,-5.1272,-5.136,-5.1302,-5.1354,-5.144,-5.1458,-5.1479,-5.166,-5.1614,-5.1676,-5.1783,-5.1849,-5.1871,-5.189,-5.1956,-5.1981,-5.169,-5.169,-5.169,0,-5.1226,-5.1313,-5.1275,-5.1346,-5.1371,-5.1302,-5.1388,-5.1404,-5.1439,-5.1458,-5.141,-5.1517,-5.1526,-5.1641,-5.1685,-5.1703,-5.1726,-5.1675,-5.1871,-5.189,-5.1907,-5.197,-5.1995,-5.1698,-5.1697,-5.1696,-5.1695,0,-5.143,-5.1491,-5.1558,-5.1593,-5.1625,-5.1704,-5.1678,-5.1715,-5.1685,-5.1676,-5.1767,-5.1776,-5.1822,-5.1847,-5.1818,-5.1958,-5.1931,-5.1878,-5.1793,-5.1942,-5.2,-5.2024,-5.1708,-5.1706,-5.1703,-5.1702,0,0,-5.1675,-5.1688,-5.1714,-5.1729,-5.1747,-5.1793,-5.1869,-5.1914,-5.1948,-5.1974,-5.2037,-5.2112,-5.2063,-5.2086,-5.2059,-5.2117,-5.2262,-5.2057,-5.2056,-5.2096,-5.2418,-5.2459,-5.2487,-5.2231,-5.2235,-5.2239,-5.2417,0,-5.1848,-5.1978,-5.1946,-5.2075,-5.2132,-5.2067,-5.2133,-5.2152,-5.2145,-5.2193,-5.2185,-5.2239,-5.217,-5.2184,-5.2238,-5.2233,-5.2326,-5.2219,-5.2291,-5.2294,-5.2289,-5.2517,-5.2561,-5.2728,-5.2439,-5.2443,-5.2445,0,-5.2067,-5.2102,-5.2237,-5.2246,-5.2268,-5.2329,-5.2368,-5.2414,-5.2433,-5.2424,-5.2451,-5.2412,-5.2488,-5.2402,-5.2506,-5.2434,-5.2461,-5.2463,-5.2469,-5.2475,-5.238,-5.2531,-5.278,-5.2806,-5.2481,-5.2478,-5.2475,0,-5.2234,-5.2315,-5.2406,-5.2421,-5.2434,-5.2478,-5.2485,-5.25,-5.2529,-5.2564,-5.2583,-5.2626,-5.265,-5.2684,-5.2658,-5.2598,-5.2768,-5.2679,-5.2764,-5.2765,-5.2803,-5.2802,-5.3062,-5.2819,-5.2819,-5.2818,-5.2818,0,-5.2431,-5.2517,-5.2482,-5.2538,-5.2632,-5.2595,-5.2689,-5.2689,-5.2703,-5.2759,-5.2705,-5.2759,-5.2721,-5.2772,-5.2752,-5.2842,-5.2853,-5.2849,-5.2843,-5.2855,-5.2856,-5.2873,-5.2861,-5.2825,-5.2823,-5.2822,-5.2821,0,-5.2635,-5.2614,-5.271,-5.2714,-5.2717,-5.2787,-5.279,-5.2843,-5.2832,-5.2904,-5.2918,-5.2902,-5.2959,-5.2936,-5.2997,-5.2984,-5.31,-5.3078,-5.3093,-5.3088,-5.3175,-5.3168,-5.3456,-5.3493,-5.3226,-5.3228,-5.323,0,-5.2763,-5.2827,-5.2838,-5.2871,-5.2883,-5.2937,-5.2967,-5.2932,-5.2966,-5.2994,-5.3044,-5.3096,-5.3136,-5.323,-5.3224,-5.3271,-5.325,-5.3348,-5.3257,-5.3267,-5.3253,-5.3251,-5.3257,-5.3367,-5.337,-5.3373,-5.3375,0,-5.2992,-5.2979,-5.3024,-5.3066,-5.3103,-5.3135,-5.3162,-5.3192,-5.3159,-5.32,-5.3257,-5.3288,-5.335,-5.3403,-5.3445,-5.3453,-5.341,-5.3403,-5.3426,-5.3439,-5.3446,-5.3445,-5.3145,-5.3397,-5.3395,-5.3393,-5.3392,-5.3391,-5.3162,-5.3217,-5.3234,-5.3286,-5.3302,-5.3329,-5.3379,-5.3375,-5.3422,-5.3469,-5.3446,-5.3514,-5.3532,-5.3583,-5.3598,-5.365,-5.3612,-5.3644,-5.3653,-5.3661,-5.3673,-5.3436,-5.3658,-5.3657,-5.3656,-5.3656,-5.3655,0,-5.339,-5.3398,-5.3446,-5.3485,-5.3527,-5.3481,-5.3509,-5.3547,-5.3607,-5.3628,-5.3668,-5.3735,-5.3787,-5.3785,-5.3832,-5.3875,-5.3857,-5.3889,-5.3886,-5.3889,-5.3704,-5.3681,-5.3903,-5.3903,-5.3903,-5.3903,-5.3903,-5.3903,-5.3514,-5.3604,-5.3593,-5.3692,-5.3698,-5.3764,-5.3784,-5.3808,-5.3825,-5.3902,-5.3944,-5.3942,-5.3955,-5.4003,-5.4049,-5.4047,-5.4068,-5.4108,-5.4099,-5.3927,-5.3902,-5.3879,-5.3856,-5.4113,-5.4113,-5.428,-5.4281,-5.4283]},{"header":{"parameterUnit":"m.s-1","parameterCategory":1,"la1":30.2991,"la2":30.254,"lo1":-89.0895,"lo2":-89.0444,"dy":0.0017,"dx":0.0017,"nx":28,"ny":28,"refTime":"2023-09-28T21:00:00:Z","depth":0,"parameterNumber":3,"parameterNumberName":"V-component_of_WINDS"},"data":[0,0,0,0,0,0,0,0,0,0,0,0,0,0,0,0,0,0,0,0,0,0,0,0,0,0,0,0,0,0,0,0,0,0,0,0,0,0,0,0,0,0,0,0,0,0,0,0,0,0,0,0,0,0,0,0,0,0,-2.7417,-2.7417,0,-2.7438,-2.7438,-2.7439,-2.7399,-2.7398,-2.7396,-2.7395,-2.7417,-2.7418,-2.742,0,0,0,0,0,0,0,0,0,0,0,0,0,-2.734,-2.7341,-2.7417,-2.7417,-2.7417,-2.7438,-2.7438,-2.7439,-2.7399,-2.7398,-2.7396,-2.7394,-2.7416,-2.7418,-2.742,0,0,0,0,0,0,0,0,0,0,0,0,0,-2.7368,-2.7342,-2.7416,-2.74,-2.7399,-2.7438,-2.7438,-2.7439,-2.7399,-2.7397,-2.7395,-2.7394,-2.7415,-2.7418,-2.7421,-2.7477,0,0,-2.7429,-2.743,0,0,0,0,0,0,0,0,-2.7367,-2.7371,-2.7402,-2.7401,-2.74,-2.7414,-2.7419,-2.7452,-2.74,-2.7399,-2.7395,-2.7393,-2.7417,-2.742,-2.7428,-2.7478,-2.7479,-2.7429,-2.7431,-2.7432,-2.7433,0,0,0,0,0,0,0,-2.7365,-2.737,-2.7425,-2.7403,-2.7401,-2.7391,-2.7393,-2.7425,-2.7419,-2.7399,-2.7396,-2.7399,-2.7416,-2.7426,-2.7428,-2.7479,-2.7429,-2.7431,-2.7433,-2.7434,-2.7576,-2.7578,0,0,0,0,0,0,-2.7365,-2.7369,-2.7424,-2.7426,-2.7378,-2.7394,-2.7396,-2.7411,-2.7419,-2.7418,-2.7401,-2.7397,-2.7422,-2.7425,-2.7429,-2.7495,-2.7432,-2.7434,-2.7436,-2.7574,-2.7576,-2.7579,0,0,0,0,0,0,-2.7364,-2.737,-2.7423,-2.7396,-2.7402,-2.7397,-2.7415,-2.7413,-2.7422,-2.742,-2.7419,-2.7412,-2.742,-2.7425,-2.7465,-2.7496,-2.7436,-2.7438,-2.7571,-2.7574,-2.7577,-2.7629,0,0,0,0,0,0,-2.7362,-2.737,-2.7392,-2.7397,-2.7404,-2.746,-2.7417,-2.7415,-2.7427,-2.7422,-2.743,-2.7429,-2.7419,-2.7461,-2.7468,-2.7498,-2.744,-2.7568,-2.7573,-2.7576,-2.7624,-2.7633,-2.7641,0,0,0,0,0,-2.7359,-2.7406,-2.7393,-2.74,-2.7431,-2.7462,-2.7466,-2.7454,-2.743,-2.7451,-2.745,-2.7429,-2.7491,-2.7466,-2.7473,-2.7504,-2.7566,-2.7571,-2.7576,-2.7621,-2.7632,-2.7641,0,0,0,0,0,0,-2.7404,-2.7406,-2.7392,-2.7442,-2.7452,-2.7455,-2.7482,-2.7466,-2.7483,-2.7478,-2.7462,-2.7464,-2.7507,-2.7509,-2.7481,-2.7559,-2.7525,-2.7531,-2.7556,-2.7566,-2.7575,-2.7574,-2.7442,0,0,0,0,0,-2.742,-2.7445,-2.7445,-2.7489,-2.7495,-2.7488,-2.7501,-2.749,-2.75,-2.7504,-2.7505,-2.7515,-2.7537,-2.7552,-2.7571,-2.7624,-2.7625,-2.7649,-2.7657,-2.7664,-2.767,-2.7698,-2.7709,-2.7594,-2.7594,-2.7594,0,0,-2.7453,-2.7457,-2.7474,-2.7498,-2.7505,-2.7531,-2.7492,-2.7521,-2.754,-2.7508,-2.7547,-2.7548,-2.7558,-2.7604,-2.7625,-2.7608,-2.7702,-2.767,-2.7676,-2.7678,-2.7704,-2.7715,-2.7725,-2.7598,-2.7597,-2.7596,0,0,-2.7526,-2.7532,-2.7569,-2.7576,-2.7586,-2.7581,-2.759,-2.7595,-2.7595,-2.7633,-2.761,-2.7632,-2.7669,-2.7677,-2.7686,-2.7761,-2.7743,-2.7768,-2.7812,-2.7839,-2.7848,-2.7856,-2.7883,-2.7893,-2.7774,-2.7774,-2.7774,0,-2.7566,-2.7605,-2.759,-2.7621,-2.7632,-2.7604,-2.7642,-2.7649,-2.7665,-2.7674,-2.7654,-2.77,-2.7705,-2.7753,-2.7771,-2.7779,-2.7789,-2.7768,-2.7848,-2.7856,-2.7863,-2.7889,-2.7899,-2.7777,-2.7777,-2.7776,-2.7776,0,-2.7653,-2.768,-2.7709,-2.7725,-2.7739,-2.7773,-2.7763,-2.7779,-2.7767,-2.7764,-2.7803,-2.7807,-2.7827,-2.7837,-2.7826,-2.7884,-2.7873,-2.7851,-2.7816,-2.7878,-2.7901,-2.7911,-2.7782,-2.778,-2.7779,-2.7779,0,0,-2.7757,-2.7764,-2.7775,-2.7782,-2.7791,-2.7811,-2.7843,-2.7863,-2.7877,-2.7888,-2.7915,-2.7947,-2.7926,-2.7937,-2.7926,-2.7949,-2.8009,-2.7924,-2.7924,-2.7941,-2.8073,-2.809,-2.8101,-2.7996,-2.7998,-2.7999,-2.8072,0,-2.783,-2.7886,-2.7874,-2.7929,-2.7953,-2.7926,-2.7954,-2.7962,-2.796,-2.798,-2.7976,-2.8,-2.7971,-2.7977,-2.7999,-2.7997,-2.8035,-2.7991,-2.8021,-2.8022,-2.802,-2.8114,-2.8132,-2.8201,-2.8081,-2.8083,-2.8084,0,-2.7924,-2.7939,-2.7997,-2.8001,-2.8011,-2.8036,-2.8053,-2.8072,-2.808,-2.8077,-2.8088,-2.8072,-2.8103,-2.8067,-2.811,-2.808,-2.8091,-2.8091,-2.8094,-2.8097,-2.8057,-2.812,-2.8222,-2.8233,-2.8098,-2.8097,-2.8096,0,-2.7995,-2.8029,-2.8068,-2.8075,-2.808,-2.8099,-2.8102,-2.8108,-2.8121,-2.8135,-2.8142,-2.816,-2.817,-2.8184,-2.8172,-2.8147,-2.8217,-2.818,-2.8215,-2.8215,-2.8232,-2.8231,-2.8338,-2.8238,-2.8237,-2.8237,-2.8237,0,-2.8079,-2.8115,-2.81,-2.8124,-2.8164,-2.8148,-2.8188,-2.8188,-2.8193,-2.8216,-2.8193,-2.8216,-2.8199,-2.822,-2.8211,-2.8248,-2.8252,-2.825,-2.8248,-2.8253,-2.8253,-2.8261,-2.8256,-2.824,-2.8239,-2.8239,-2.8238,0,-2.8165,-2.8157,-2.8197,-2.8199,-2.82,-2.8229,-2.823,-2.8252,-2.8247,-2.8277,-2.8283,-2.8275,-2.8298,-2.8288,-2.8312,-2.8306,-2.8354,-2.8344,-2.8351,-2.8349,-2.8385,-2.8382,-2.8501,-2.8516,-2.8405,-2.8406,-2.8407,0,-2.822,-2.8247,-2.8251,-2.8265,-2.827,-2.8293,-2.8305,-2.829,-2.8304,-2.8315,-2.8335,-2.8356,-2.8372,-2.841,-2.8406,-2.8425,-2.8416,-2.8456,-2.8419,-2.8423,-2.8417,-2.8416,-2.8419,-2.8464,-2.8466,-2.8467,-2.8467,0,-2.8318,-2.8312,-2.8331,-2.8348,-2.8363,-2.8376,-2.8387,-2.84,-2.8385,-2.8401,-2.8424,-2.8437,-2.8461,-2.8482,-2.8498,-2.85,-2.8482,-2.8479,-2.8488,-2.8494,-2.8497,-2.8497,-2.8373,-2.8477,-2.8476,-2.8475,-2.8475,-2.8474,-2.839,-2.8413,-2.842,-2.8441,-2.8448,-2.8458,-2.8479,-2.8476,-2.8495,-2.8514,-2.8504,-2.8531,-2.8537,-2.8556,-2.8561,-2.8582,-2.8566,-2.8579,-2.8582,-2.8586,-2.8591,-2.8493,-2.8584,-2.8584,-2.8584,-2.8584,-2.8583,0,-2.8488,-2.849,-2.851,-2.8526,-2.8543,-2.8523,-2.8533,-2.8549,-2.8573,-2.858,-2.8596,-2.8623,-2.8643,-2.864,-2.8658,-2.8675,-2.8667,-2.8681,-2.868,-2.8681,-2.8604,-2.8595,-2.8687,-2.8687,-2.8687,-2.8687,-2.8687,-2.8687,-2.8541,-2.8578,-2.8573,-2.8613,-2.8615,-2.8642,-2.8649,-2.8659,-2.8665,-2.8695,-2.8711,-2.8709,-2.8713,-2.8731,-2.8748,-2.8747,-2.8755,-2.8772,-2.8767,-2.8696,-2.8686,-2.8676,-2.8667,-2.8773,-2.8774,-2.8842,-2.8843,-2.8843]}]]